Regional Weather Roundup
Issued by NWS Pendleton, OR

Home | Current Version | Previous Version | Text Only | Print | Product List | Glossary On
Versions: 1 2 3 4 5 6 7 8 9 10 11 12 13 14 15 16 17 18 19 20 21 22 23 24 25 26 27 28 29 30 31 32 33 34 35 36 37 38 39 40 41 42 43 44 45 46 47 48 49 50
000
ASUS46 KPDT 301410
RWRPDT
PENDLETON REGIONAL WEATHER ROUNDUP
NATIONAL WEATHER SERVICE PENDLETON OREGON
700 AM PDT SUN AUG 30 2015

NOTE: FAIR INDICATES FEW OR NO CLOUDS BELOW 12,000 FEET WITH NO
SIGNIFICANT WEATHER AND/OR OBSTRUCTIONS TO VISIBILITY.

# INDICATES UNOFFICIAL STATION AND DATA

WAZ520-301510-
EAST SLOPES OF WASHINGTON CASCADES

CITY            SKY/WX      TMP DP  RH  WIND    PRES   REMARKS
#BULLFROG 2SW   N/A         49  48  96  S2      27.44R
#BUMPING DAM    N/A         47  N/A N/A S1      N/A
#CLE ELUM HS    N/A         52  51  96  CALM    29.77F
#CLE ELUM LAKE  N/A         49  47  93  CALM    29.71S
#CLIFFDEL 2NW   N/A         49  48  96  E1      N/A
#EASTON DOT     N/A         49  44  83  N1      N/A
#GLENWOOD       N/A         53  51  93  S3      29.82R
#MANASTASH CYN  N/A         49  44  83  CALM    29.81S
#NELSON         N/A         52  51  96  CALM    29.76S
#NELSON 3SW     N/A         50  49  96  CALM    29.92S
#NILE           N/A         50  48  93  CALM    29.02F
#PEOH POINT     N/A         46  46  100 W1      N/A
#RONALD 2NW     N/A         51  -4  10  E1      29.72R
#SNOWDEN        N/A         50  44  80  CALM    N/A
#TEANAWAY 4NE   N/A         52  52  100 CALM    N/A
#TROUT LAKE 1NE N/A         52  51  96  CALM    29.83R
$$

WAZ521-301510-
SIMCOE HIGHLANDS

CITY            SKY/WX      TMP DP  RH  WIND    PRES   REMARKS
#BICKLETON HS   N/A         53  45  74  W10     N/A
#SATUS PASS DOT N/A         50  49  96  CALM    N/A
#CENTERVILLE 4W N/A         54  49  83  CALM    29.63R
#CENTERVILLE 1SWN/A         54  48  80  W13     29.80R
#GOLDENDALE     N/A         55  50  83  W8      N/A
#GOLDENDALE 1NE N/A         55  48  77  SW1     N/A
#GOLDENDALE 5WNWN/A         55  50  83  W9      29.80R
#GOODNOE HILLS  N/A         60  52  75  NW13    N/A
#LYLE 6NE       N/A         54  51  90  S1      29.80R
$$

WAZ026-301510-
KITTITAS VALLEY

CITY            SKY/WX      TMP DP  RH  WIND    PRES   REMARKS
ELLENSBURG AP   CLOUDY      56  52  86  W3      29.80S
YTC-OPS AREA    MOCLEAR     50  48  93  S17G26  29.79R
#ELLENSBURG CWU N/A         54  51  90  CALM    29.70S
#ELLENSBURG 3NE N/A         54  51  90  CALM    29.81S
#ELLENSBURG 1E  N/A         54  48  80  CALM    N/A
#KITTITAS 4N    N/A         54  47  77  CALM    29.81R
#KITTITAS 3S    N/A         54  51  90  CALM    29.73S
#THORP 6N       N/A         51  50  96  N6      29.73F
$$

WAZ027-301510-
YAKIMA VALLEY

CITY            SKY/WX      TMP DP  RH  WIND    PRES   REMARKS
SUNNYSIDE AP    CLOUDY      61  51  70  SE6     29.82R
YAKIMA AIRPORT  CLOUDY      61  52  72  S6      29.81R
YAKIMA-VAGABOND MOCLDY      58  52  80  S13     29.81S
#DONALD 2NE     N/A         62  44  52  E1      28.67R
#GRANDVIEW      N/A         63  50  62  SW2     29.82R
#MABTON         N/A         64  52  65  S6      29.82R
#MOXEE 2E       N/A         60  42  51  S5      29.79R
#NACHES 2SW     N/A         55  52  90  CALM    29.80S
#TERRACE HTS    N/A         57  52  83  CALM    29.73F
#TOPPENISH      N/A         61  49  65  SW5     29.70S
#WAPATO 4NE     N/A         62  44  52  E1      28.67R
#W YAKIMA       N/A         57  52  83  CALM    29.76S
#WILEY CITY 3W  N/A         59  47  64  CALM    29.77S
$$

WAZ028-301510-
LOWER COLUMBIA BASIN...WASHINGTON

CITY            SKY/WX      TMP DP  RH  WIND    PRES   REMARKS
PASCO           CLOUDY      64  51  63  S7      29.83R
#CONNELL 5N     N/A         56  49  77  CALM    29.78R
#CONNELL 5NW    N/A         56  51  83  CALM    29.75R
#ELTOPIA 6NW    N/A         57  53  86  S1      28.80R
#KAHLOTUS       N/A         58  47  67  W5      29.78R
#KENNEWICK      N/A         49  48  96  S2      27.44R
#KENNEWICK 3S   N/A         61  51  70  N1      29.79R
#PATERSON       N/A         58  50  75  CALM    29.80R
#PROSSER DOT    N/A         64  49  58  CALM    N/A
#PROSSER        N/A         61  47  60  SW3     29.80R
#SAGEMOOR 2W    N/A         57  53  86  CALM    29.65R
#TOUCHET 2S     N/A         52  46  80  CALM    29.80R
#WEST PASCO     N/A         62  51  67  CALM    29.78R
$$

WAZ029-301510-
FOOTHILLS OF THE BLUES...WASHINGTON

CITY            SKY/WX      TMP DP  RH  WIND    PRES   REMARKS
WALLA WALLA AP  CLOUDY      64  44  48  SE7     29.85R
#DAYTON SCHOOL  N/A         53  38  57  CALM    29.86R
#LOWDEN 2SE     N/A         53  47  80  CALM    29.80R
#PLEASANT VIEW 1N/A         57  45  64  S1      29.81R
#PRESCOTT       N/A         52  45  77  CALM    29.81R
#SUDBURY        N/A         56  N/A N/A CALM    N/A
#WHITMAN COLLEGEN/A         59  46  62  SE6     29.85R
#WAITSBURG 8N   N/A         54  28  36  N1      29.68S
#WALLA WALLA U  N/A         60  46  60  SE1     29.80R
#WHITMAN MISSIONN/A         54  49  83  CALM    29.82R
$$

WAZ030-301510-
BLUE MOUNTAINS...WASHINGTON

CITY            SKY/WX      TMP DP  RH  WIND    PRES   REMARKS
#SKI BLUEWOOD   N/A         46  40  79  CALM    29.92R
$$

ORZ009-041-WAZ024-301510-
COLUMBIA RIVER GORGE

CITY            SKY/WX      TMP DP  RH  WIND    PRES   REMARKS
THE DALLES AP   CLOUDY      61  53  75  S6      29.86R
#ARLINGTON AIRPON/A         60  54  81  W10     29.81S
#CELILO DOT     N/A         65  53  65  W7      N/A
#MARYHILL       N/A         60  49  67  CALM    N/A
#MOSIER 1S      N/A         56  51  83  CALM    29.87S
#RUFUS DOT      N/A         65  53  65  CALM    N/A

$$

ORZ510-301510-
NORTH CENTRAL OREGON

CITY            SKY/WX      TMP DP  RH  WIND    PRES   REMARKS
#CHENOWITH 1W   N/A         53  52  96  NW18    N/A
#GRASS VALLEY 1SN/A         55  50  83  W14     29.85R
#KENT DOT       N/A         55  45  69  N10     N/A
#MAUPIN SCHOOL  N/A         62  53  72  W12     29.91R
#MORO SCHOOL    N/A         55  54  96  NW10    29.88R
#SHANIKO 5WSW   N/A         56  40  55  S16     N/A
#SHANIKO 4NW    N/A         55  42  61  SW8G26  29.90R
#TYGH VALLEY 2NEN/A         61  50  67  SW10    29.83R
#WAPANITIA AIRPON/A         56  51  83  W2      29.84R
#WASCO 5NE      N/A         58  52  80  N3      29.82R
$$

ORZ511-301510-
CENTRAL OREGON

CITY            SKY/WX      TMP DP  RH  WIND    PRES   REMARKS
BEND AIRPORT    CLOUDY      55  43  64  SW13    29.96R
PRINEVILLE AP   CLOUDY      59  39  47  S12     29.94R
REDMOND AIRPORT PTCLDY      58  42  55  S13G25  29.93R
#BEND-AWBREY    N/A         55  46  72  S3      29.82R
#BEND-KIM LN    N/A         55  45  69  SW3     29.92R
#CULVER         N/A         59  46  62  W6      29.88R
#LAKE BILLY CHINN/A         59  26  28  W3      29.97R
#MADRAS         N/A         61  44  53  SW10    N/A
#POWELL BUTTE 3EN/A         59  40  49  S8      N/A
#POWELL BUTTE   N/A         58  42  55  SW14    29.58R
#PRINEVILLE 3N  N/A         59  43  55  SE3     29.79R
#WARM SPRINGS   N/A         64  48  56  E6      29.85S

$$


ORZ509-301510-
EAST SLOPES OF OREGON CASCADES

CITY            SKY/WX      TMP DP  RH  WIND    PRES   REMARKS
#BLUE BOX PASS  N/A         46  -6  11  S2      N/A
#CAMP SHERMAN   N/A         54  46  74  CALM    29.82R
#LA PINE 4NW    N/A         51  42  71  CALM    29.88R
#SISTERS AIRPOR N/A         58  49  72  N12G24  30.17S
#SISTERS 3N     N/A         57  42  57  W3      29.96R
#SUNRIVER       N/A         52  46  80  SW1     29.72R
#TUMALO 3W      N/A         54  42  64  SE2     29.70R

$$

ORZ044-301510-
LOWER COLUMBIA BASIN...OREGON

CITY            SKY/WX      TMP DP  RH  WIND    PRES   REMARKS
HERMISTON       CLOUDY      56  46  69  CALM    29.83R
#BOARDMAN SCHOOLN/A         57  47  69  CALM    29.84R
#BOARDMAN 8SW   N/A         59  50  72  W5      29.82R
#ECHO 8SW       N/A         55  45  69  CALM    29.84R
#IONE SCHOOL    N/A         67  44  43  SW2     29.81R
#IRRIGON 4NW    N/A         59  51  75  E3      N/A
#UMATILLA SCHOOLN/A         53  51  93  CALM    29.85S
#UMATILLA       N/A         57  45  64  CALM    29.75R
$$

ORZ507-301510-
NORTHERN FOOTHILLS OF THE BLUES

CITY            SKY/WX      TMP DP  RH  WIND    PRES   REMARKS
PENDLETON AIRPT MOCLDY      53  42  66  E7      29.85R
#ADAMS 3WNW     N/A         50  41  71  CALM    29.81R
#ATHENA         N/A         53  43  69  CALM    29.83R
#HELIX SCHOOL   N/A         49  41  74  CALM    29.80R
#HELIX 3N       N/A         57  43  59  S8      29.84R
#HOLDMAN 5SE    N/A         56  44  64  CALM    29.86R
#HOLDMAN 6E     N/A         57  44  62  NW5     29.61R
#M-FREEWATER 5SEN/A         58  45  62  CALM    29.86R
#PENDLETON DNTN N/A         52  39  61  CALM    29.90R
#PDT AQUATIC CTRN/A         52  38  59  E1      29.83S
#PDT SUNRIDGE   N/A         50  43  77  CALM    29.86R
#PENDLETON 7NW  N/A         54  43  66  E7      32.07S
#TUTUILLA       N/A         52  45  77  CALM    29.84R
#UMAPINE 2E     N/A         62  48  60  S1      29.80S
#WESTON SCHOOL  N/A         61  41  48  W1      29.78R

$$

ORZ508-301510-
SOUTHERN FOOTHILLS OF THE BLUES

CITY            SKY/WX      TMP DP  RH  WIND    PRES   REMARKS
#AJAX           N/A         59  43  55  SW12    29.83R
#CONDON SCHOOL  N/A         59  44  57  SW7     29.86R
#CONDON 5W      N/A         57  43  59  SW7     29.87R
#FOSSIL SCHOOL  N/A         66  51  58  CALM    29.94S
#HEPPNER EOC    N/A         60  42  51  CALM    29.72S
#HEPPNER 4NE    N/A         60  42  51  CALM    29.78R
#LEXINGTON 2SE  N/A         63  43  48  CALM    29.82R
#OLEX 4N        N/A         57  49  75  W2      29.85R
#RUGGS 2SW      N/A         61  42  50  SW3     29.79S

$$

ORZ502-503-301510-
BLUE MOUNTAINS

CITY            SKY/WX      TMP DP  RH  WIND    PRES   REMARKS
MEACHAM         MOCLDY      44  38  79  CALM    29.93R
#HEPPNER 15SE   N/A         53  40  61  CALM    29.83R
#LONG CREEK HS  N/A         57  42  57  CALM    29.89S
#PIKES PEAK     N/A         58  41  53  SW21    27.99S
#TOLLGATE       N/A         51  39  63  S1      29.83S
#TROY SCHOOL    N/A         54  44  69  CALM    29.69R
#UKIAH          N/A         36  34  92  CALM    29.86R
#WESTON 4E      N/A         55  41  59  E1      29.73R
$$

ORZ505-301510-
JOHN DAY BASIN

CITY            SKY/WX      TMP DP  RH  WIND    PRES   REMARKS
JOHN DAY        MOCLDY      60  39  46  SW16    29.97R
#JOHN DAY KJDY  N/A         50  46  86  CALM    30.11F
#DAYVILLE SCHOOLN/A         61  39  44  W5      29.91S
#MITCHELL       N/A         59  44  57  CALM    30.09R
#MITCHELL 8NW   N/A         57  39  51  S3      29.98R
#MONUMENT HS    N/A         49  39  68  CALM    29.92S
#MT. VERNON 5SE N/A         53  38  57  CALM    29.92F
#SPRAY SCHOOL   N/A         51  N/A N/A CALM    N/A
$$

ORZ506-301510-
OCHOCO AND JOHN DAY HIGHLANDS

CITY            SKY/WX      TMP DP  RH  WIND    PRES   REMARKS
#PINE MTN OBS   N/A         42  38  86  S15G25  N/A    WCI 34
#PRAIRIE CITY   N/A         45  40  82  CALM    30.02F
#SENECA         N/A         40  N/A N/A CALM    N/A
#SENECA 9NW     N/A         37  33  85  CALM    29.81R
$$

ORZ049-301510-
GRANDE RONDE VALLEY

CITY            SKY/WX      TMP DP  RH  WIND    PRES   REMARKS
LA GRANDE       PTCLDY      46  30  53  W3      29.92R
#COVE           N/A         48  44  86  CALM    29.93F
#COVE SCHOOL    N/A         48  43  83  CALM    29.94F
#COVE 6NW       N/A         43  39  86  NW1     29.88R
#ELGIN 3N       N/A         45  39  79  CALM    29.90S
#ELGIN 1E       N/A         43  37  79  CALM    N/A
#ISLAND CITY 4N N/A         57  56  96  CALM    29.88R
#LADD CYN DOT   N/A         53  41  64  S3      N/A
#LA GRANDE ELEM N/A         51  42  71  CALM    29.94R
#UNION 1S       N/A         52  42  69  CALM    29.71R
$$

ORZ050-301510-
WALLOWA COUNTY

CITY            SKY/WX      TMP DP  RH  WIND    PRES   REMARKS
#ENTERPRISE HS  N/A         48  43  83  CALM    29.95R
#IMNAHA SCHOOL  N/A         56  46  69  SE1     29.89R
#IMNAHA 10S     N/A         53  43  69  SW2     29.93R
#JOSEPH 3N      N/A         47  39  74  CALM    29.96R
#JOSEPH 3W      N/A         N/A N/A N/A CALM    29.80R
#LOSTINE        N/A         47  42  83  W1      29.61R
#MT HOWARD 8000 N/A         43  35  73  SW3     30.09R
#PROMISE 1S     N/A         50  41  71  CALM    29.93R
#WALLOWA SCHOOL N/A         45  40  82  CALM    29.90R



$$



USA.gov is the U.S. government's official web portal to all federal, state and local government web resources and services.